Time,TemperatureF,DewpointF,PressureIn,WindDirection,WindDirectionDegrees,WindSpeedMPH,WindSpeedGustMPH,Humidity,HourlyPrecipIn,Conditions,Clouds,dailyrainin,SoftwareType,DateUTC
2013-06-10 00:03:00,68.0,62.0,29.89,SSE,157,0.0,0.0,82,0.00,,,0.00,,2013-06-10 04:03:00,
2013-06-10 00:12:00,68.0,62.0,29.89,SSE,157,0.0,0.0,82,0.00,,,0.00,,2013-06-10 04:12:00,
2013-06-10 00:23:00,68.0,63.0,29.88,SSE,157,0.0,0.0,83,0.00,,,0.00,,2013-06-10 04:23:00,
2013-06-10 00:33:00,68.0,63.0,29.88,South,180,0.0,0.0,83,0.00,,,0.00,,2013-06-10 04:33:00,
2013-06-10 00:42:00,68.0,63.0,29.88,South,180,0.0,0.0,83,0.00,,,0.00,,2013-06-10 04:42:00,
2013-06-10 00:52:00,68.0,63.0,29.89,SW,225,0.0,0.0,84,0.00,,,0.00,,2013-06-10 04:52:00,
2013-06-10 01:02:00,67.0,62.0,29.89,SSW,202,0.0,0.0,85,0.09,,,0.09,,2013-06-10 05:02:00,
2013-06-10 01:12:00,67.0,62.0,29.89,SSW,202,0.0,0.0,85,0.09,,,0.09,,2013-06-10 05:12:00,
2013-06-10 01:22:00,67.0,63.0,29.88,South,180,0.0,0.0,86,0.11,,,0.11,,2013-06-10 05:22:00,
2013-06-10 01:32:00,67.0,63.0,29.88,South,180,0.0,0.0,86,0.11,,,0.11,,2013-06-10 05:32:00,
2013-06-10 01:42:00,67.0,63.0,29.88,South,180,0.0,0.0,86,0.11,,,0.11,,2013-06-10 05:42:00,
2013-06-10 01:52:00,67.0,63.0,29.87,ESE,112,0.0,0.0,87,0.23,,,0.23,,2013-06-10 05:52:00,
2013-06-10 02:02:00,67.0,63.0,29.87,SSE,157,0.0,2.0,88,0.21,,,0.25,,2013-06-10 06:02:00,
2013-06-10 02:12:00,67.0,63.0,29.87,SSE,157,0.0,2.0,88,0.21,,,0.25,,2013-06-10 06:12:00,
2013-06-10 02:22:00,67.0,63.0,29.85,SSW,202,0.0,0.0,88,0.18,,,0.29,,2013-06-10 06:22:00,
2013-06-10 02:32:00,67.0,63.0,29.85,SSW,202,0.0,0.0,88,0.16,,,0.29,,2013-06-10 06:32:00,
2013-06-10 02:42:00,67.0,63.0,29.85,SSW,202,0.0,0.0,88,0.16,,,0.29,,2013-06-10 06:42:00,
2013-06-10 02:53:00,67.0,63.0,29.85,North,-999,-999.0,-999.0,88,0.08,,,0.29,,2013-06-10 06:53:00,
2013-06-10 03:02:00,66.0,62.0,29.87,SSE,157,0.0,0.0,88,0.14,,,0.39,,2013-06-10 07:02:00,
2013-06-10 03:12:00,66.0,62.0,29.87,SSE,157,0.0,0.0,88,0.14,,,0.39,,2013-06-10 07:12:00,
2013-06-10 03:22:00,64.0,60.0,29.83,SW,225,0.0,0.0,87,0.22,,,0.51,,2013-06-10 07:22:00,
2013-06-10 03:32:00,64.0,60.0,29.83,SW,225,0.0,0.0,87,0.22,,,0.51,,2013-06-10 07:32:00,
2013-06-10 03:42:00,64.0,60.0,29.83,SW,225,0.0,0.0,87,0.22,,,0.51,,2013-06-10 07:42:00,
2013-06-10 03:52:00,63.0,59.0,29.83,SW,225,0.0,0.0,87,0.31,,,0.60,,2013-06-10 07:52:00,
2013-06-10 04:02:00,63.0,59.0,29.83,SSW,202,0.0,0.0,88,0.27,,,0.66,,2013-06-10 08:02:00,
2013-06-10 04:12:00,63.0,59.0,29.83,SSW,202,0.0,0.0,88,0.27,,,0.66,,2013-06-10 08:12:00,
2013-06-10 04:22:00,63.0,60.0,29.82,SSW,202,0.0,0.0,89,0.23,,,0.74,,2013-06-10 08:22:00,
2013-06-10 04:32:00,62.0,59.0,29.82,SSW,202,0.0,0.0,89,0.27,,,0.78,,2013-06-10 08:32:00,
2013-06-10 04:42:00,62.0,59.0,29.82,SSW,202,0.0,0.0,89,0.27,,,0.78,,2013-06-10 08:42:00,
2013-06-10 04:52:00,63.0,60.0,29.81,SSW,202,0.0,0.0,89,0.20,,,0.80,,2013-06-10 08:52:00,
2013-06-10 05:02:00,63.0,60.0,29.81,SSW,202,0.0,0.0,89,0.14,,,0.80,,2013-06-10 09:02:00,
2013-06-10 05:12:00,63.0,60.0,29.81,SSW,202,0.0,0.0,89,0.14,,,0.80,,2013-06-10 09:12:00,
2013-06-10 05:22:00,63.0,60.0,29.80,SSW,202,0.0,0.0,89,0.08,,,0.82,,2013-06-10 09:22:00,
2013-06-10 05:32:00,63.0,60.0,29.80,SSW,202,0.0,0.0,89,0.04,,,0.82,,2013-06-10 09:32:00,
2013-06-10 05:42:00,63.0,60.0,29.80,SSW,202,0.0,0.0,89,0.04,,,0.82,,2013-06-10 09:42:00,
2013-06-10 05:53:00,63.0,60.0,29.79,North,-999,-999.0,-999.0,89,0.04,,,0.82,,2013-06-10 09:53:00,
2013-06-10 06:03:00,63.0,60.0,29.79,North,-999,-999.0,-999.0,89,0.04,,,0.82,,2013-06-10 10:03:00,
2013-06-10 06:12:00,63.0,60.0,29.79,North,-999,-999.0,-999.0,89,0.04,,,0.82,,2013-06-10 10:12:00,
2013-06-10 06:23:00,63.0,60.0,29.79,North,-999,-999.0,-999.0,89,0.04,,,0.82,,2013-06-10 10:23:00,
2013-06-10 06:41:00,64.0,61.0,29.80,North,-999,-999.0,-999.0,89,0.00,,,0.82,,2013-06-10 10:41:00,
2013-06-10 06:52:00,64.0,61.0,29.79,South,180,0.0,0.0,89,0.00,,,0.82,,2013-06-10 10:52:00,
2013-06-10 07:03:00,64.0,61.0,29.80,North,-999,-999.0,-999.0,89,0.00,,,0.82,,2013-06-10 11:03:00,
2013-06-10 07:12:00,64.0,61.0,29.80,North,-999,-999.0,-999.0,89,0.00,,,0.82,,2013-06-10 11:12:00,
2013-06-10 07:22:00,64.0,61.0,29.80,North,-999,-999.0,-999.0,89,0.00,,,0.82,,2013-06-10 11:22:00,
2013-06-10 07:32:00,64.0,61.0,29.80,North,-999,-999.0,-999.0,89,0.00,,,0.82,,2013-06-10 11:32:00,
2013-06-10 08:02:00,64.0,61.0,29.81,SSE,157,0.0,0.0,91,0.00,,,0.82,,2013-06-10 12:02:00,
2013-06-10 08:12:00,64.0,61.0,29.81,SSE,157,0.0,0.0,91,0.00,,,0.82,,2013-06-10 12:12:00,
2013-06-10 08:22:00,64.0,61.0,29.82,SW,225,2.0,2.0,91,0.00,,,0.82,,2013-06-10 12:22:00,
2013-06-10 08:32:00,64.0,61.0,29.82,SW,225,2.0,2.0,91,0.00,,,0.82,,2013-06-10 12:32:00,
2013-06-10 08:42:00,64.0,61.0,29.82,SW,225,2.0,2.0,91,0.00,,,0.82,,2013-06-10 12:42:00,
2013-06-10 08:52:00,64.0,61.0,29.82,WSW,247,0.0,0.0,91,0.00,,,0.82,,2013-06-10 12:52:00,
2013-06-10 09:02:00,64.0,61.0,29.82,WSW,247,5.0,5.0,91,0.00,,,0.82,,2013-06-10 13:02:00,
2013-06-10 09:12:00,64.0,61.0,29.82,WSW,247,5.0,5.0,91,0.00,,,0.82,,2013-06-10 13:12:00,
2013-06-10 09:22:00,64.0,61.0,29.82,West,270,0.0,0.0,91,0.00,,,0.82,,2013-06-10 13:22:00,
2013-06-10 09:32:00,65.0,62.0,29.82,SSE,157,0.0,0.0,91,0.00,,,0.82,,2013-06-10 13:32:00,
2013-06-10 09:42:00,65.0,62.0,29.82,SSE,157,0.0,0.0,91,0.00,,,0.82,,2013-06-10 13:42:00,
2013-06-10 09:52:00,65.0,62.0,29.82,SSE,157,0.0,0.0,91,0.00,,,0.82,,2013-06-10 13:52:00,
2013-06-10 10:02:00,65.0,62.0,29.82,SSE,157,0.0,0.0,91,0.00,,,0.82,,2013-06-10 14:02:00,
2013-06-10 10:12:00,65.0,62.0,29.82,SSE,157,0.0,0.0,91,0.00,,,0.82,,2013-06-10 14:12:00,